Shawano, WI

12:27 AM CDT on April 30, 2017 (GMT -0500)
Shawano

Weather History for KEZS - August, 2013

Change the Weather History Date:

Monday, August 26, 2013

  Actual Average (KCLI) Record (KCLI)
Temperature  
Mean Temperature 78 °F -  
Max Temperature 87 °F 78 °F 94 °F (1953)
Min Temperature 70 °F 55 °F 39 °F (1964)
Cooling Degree Days 14    
Growing Degree Days 28 (Base 50)    
Moisture  
Dew Point 70 °F    
Average Humidity 75    
Maximum Humidity 91    
Minimum Humidity 59    
Precipitation  
Precipitation 0.28 in - - ()
Sea Level Pressure  
Sea Level Pressure 30.00 in    
Wind  
Wind Speed 4 mph (SSW)    
Max Wind Speed 13 mph    
Max Gust Speed 20 mph    
Visibility 9 miles    
Events Rain , Thunderstorm    
Averages and records for this station are not official NWS values.
T = Trace of Precipitation, MM = Missing Value Source: NWS Daily Summary

Daily Weather History Graph

Daily Weather History Graph

Search for Another Location

Airport or City:

Trip Planner

Search our weather history database for the weather conditions in past years. The results will help you decide how hot, cold, wet, or windy it might be!

Date:

Astronomy

Aug. 26, 2013 Rise Set
Actual Time 6:09 AM CDT 7:41 PM CDT
Civil Twilight 5:39 AM CDT 8:11 PM CDT
Nautical Twilight 5:01 AM CDT 8:48 PM CDT
Astronomical Twilight 4:21 AM CDT 9:28 PM CDT
Moon 10:33 PM CDT (8/26) 12:28 PM CDT (8/26)
Length of Visible Light 14h 32m
Length of Day
13h 31m
Waning Gibbous, 66% of the Moon is Illuminated
Aug 26
Waning Gibbous
Aug 28
Last Quarter
Sep 5
New
Sep 12
First Quarter
Sep 19
Full

Hourly Weather History & Observations

Time (CDT) Temp. Heat Index Dew Point Humidity Pressure Visibility Wind Dir Wind Speed Gust Speed Precip Events Conditions
12:15 AM 79.9 °F - 68.9 °F 69% 30.00 in 7.0 mi SW 6.9 mph - N/A   Clear
12:35 AM 79.3 °F - 68.5 °F 69% 30.01 in 7.0 mi SW 6.9 mph - N/A   Clear
12:55 AM 79.0 °F - 68.0 °F 69% 30.03 in 7.0 mi WSW 4.6 mph - N/A   Clear
1:15 AM 79.0 °F - 67.8 °F 69% 30.03 in 10.0 mi SSW 3.5 mph - N/A   Clear
1:35 AM 77.4 °F - 68.0 °F 73% 30.03 in 7.0 mi SSW 3.5 mph - N/A   Clear
1:55 AM 77.2 °F - 67.3 °F 71% 30.01 in 10.0 mi SSW 3.5 mph - N/A   Clear
2:15 AM 77.0 °F - 66.7 °F 70% 30.00 in 10.0 mi Calm Calm - N/A   Clear
2:35 AM 76.3 °F - 66.2 °F 71% 29.99 in 10.0 mi SSW 3.5 mph - N/A   Clear
2:55 AM 76.6 °F - 65.5 °F 68% 30.01 in 7.0 mi SSW 3.5 mph - N/A   Clear
3:15 AM 76.3 °F - 65.3 °F 69% 30.02 in 10.0 mi Calm Calm - N/A   Clear
3:35 AM 75.6 °F - 65.3 °F 70% 30.02 in 10.0 mi Calm Calm - N/A   Clear
3:55 AM 74.8 °F - 65.7 °F 73% 30.03 in 10.0 mi SSW 4.6 mph - N/A   Clear
4:15 AM 74.3 °F - 65.7 °F 74% 30.02 in 7.0 mi SSW 4.6 mph - N/A   Clear
4:35 AM 74.3 °F - 65.8 °F 75% 30.03 in 10.0 mi Calm Calm - N/A   Clear
4:55 AM 74.1 °F - 65.8 °F 75% 30.02 in 10.0 mi Calm Calm - N/A   Clear
5:15 AM 74.1 °F - 65.8 °F 75% 30.03 in 7.0 mi Calm Calm - N/A   Mostly Cloudy
5:35 AM 74.5 °F - 65.8 °F 74% 30.07 in 10.0 mi NNW 3.5 mph 16.1 mph N/A   Overcast
5:55 AM 74.5 °F - 65.8 °F 74% 30.06 in 10.0 mi Calm Calm - N/A Rain Light Rain
6:15 AM 73.6 °F - 66.6 °F 79% 30.06 in 10.0 mi Calm Calm - N/A Rain Light Rain
6:35 AM 72.1 °F - 68.5 °F 88% 30.09 in 7.0 mi NNW 3.5 mph - N/A Thunderstorm Thunderstorm
6:55 AM 72.3 °F - 68.2 °F 87% 30.11 in 7.0 mi WNW 4.6 mph - N/A Rain , Thunderstorm Light Thunderstorms and Rain
7:15 AM 73.2 °F - 68.0 °F 84% 30.13 in 10.0 mi NW 8.1 mph - N/A Rain , Thunderstorm Light Thunderstorms and Rain
7:35 AM 72.5 °F - 67.3 °F 84% 30.11 in 2.5 mi Calm Calm - 0.10 in Rain , Thunderstorm Heavy Thunderstorms and Rain
7:55 AM 71.8 °F - 66.7 °F 84% 30.09 in 10.0 mi ENE 4.6 mph - 0.10 in Rain , Thunderstorm Rain
8:35 AM 71.1 °F - 68.0 °F 90% 30.07 in 10.0 mi SSW 5.8 mph - 0.06 in Rain Light Rain
8:55 AM 70.7 °F - 67.5 °F 89% 30.05 in 7.0 mi SSW 6.9 mph - 0.08 in Rain , Thunderstorm Light Thunderstorms and Rain
9:15 AM 70.3 °F - 67.5 °F 91% 30.05 in 10.0 mi SSW 9.2 mph - 0.02 in Rain , Thunderstorm Thunderstorms and Rain
9:35 AM 70.0 °F - 67.3 °F 91% 30.03 in 7.0 mi SSW 10.4 mph 17.3 mph 0.04 in Rain , Thunderstorm Rain
9:55 AM 70.3 °F - 67.1 °F 89% 30.02 in 10.0 mi SW 12.7 mph 19.6 mph 0.06 in Rain , Thunderstorm Light Thunderstorms and Rain
10:15 AM 70.9 °F - 67.1 °F 88% 30.00 in 10.0 mi WSW 5.8 mph 16.1 mph N/A Rain Light Rain
10:35 AM 71.2 °F - 67.6 °F 88% 30.01 in 10.0 mi Calm Calm - N/A   Scattered Clouds
10:55 AM 72.5 °F - 68.2 °F 86% 30.02 in 10.0 mi West 8.1 mph - N/A   Clear
11:15 AM 73.0 °F - 68.2 °F 85% 30.00 in 10.0 mi WSW 3.5 mph 16.1 mph N/A   Clear
11:35 AM 74.5 °F - 68.7 °F 82% 30.01 in 10.0 mi WSW 4.6 mph - N/A   Clear
11:55 AM 75.6 °F - 69.1 °F 80% 30.01 in 10.0 mi West 3.5 mph - N/A   Clear
12:15 PM 75.6 °F - 69.1 °F 80% 30.01 in 10.0 mi Calm Calm - N/A   Clear
12:35 PM 77.2 °F - 69.3 °F 76% 30.01 in 10.0 mi Calm Calm - N/A   Clear
12:55 PM 79.0 °F - 70.2 °F 74% 30.01 in 7.0 mi WNW 4.6 mph - N/A   Scattered Clouds
1:15 PM 80.2 °F 83.5 °F 70.0 °F 71% 30.00 in 7.0 mi NW 3.5 mph - N/A   Scattered Clouds
1:35 PM 81.7 °F 85.4 °F 70.2 °F 68% 29.99 in 7.0 mi WSW 4.6 mph - N/A   Clear
1:55 PM 82.6 °F 86.6 °F 70.2 °F 66% 29.99 in 10.0 mi WSW 5.8 mph - N/A   Clear
2:15 PM 83.5 °F 87.4 °F 69.8 °F 63% 29.99 in 10.0 mi SW 3.5 mph - N/A   Clear
2:35 PM 85.3 °F 90.4 °F 70.9 °F 62% 29.99 in 10.0 mi WNW 4.6 mph - N/A   Clear
2:55 PM 86.2 °F 91.4 °F 70.9 °F 60% 29.99 in 10.0 mi NE 4.6 mph - N/A   Scattered Clouds
3:15 PM 86.0 °F 91.5 °F 71.2 °F 61% 29.98 in 10.0 mi NE 3.5 mph - N/A   Clear
3:35 PM 87.6 °F 93.9 °F 71.6 °F 59% 29.97 in 10.0 mi NE 5.8 mph - N/A   Scattered Clouds
3:55 PM 87.1 °F 92.8 °F 71.2 °F 59% 29.97 in 10.0 mi NE 4.6 mph - N/A   Scattered Clouds
4:15 PM 86.9 °F 92.5 °F 71.2 °F 59% 29.96 in 10.0 mi NE 3.5 mph - N/A   Clear
4:35 PM 87.6 °F 94.3 °F 72.0 °F 60% 29.96 in 10.0 mi ESE 3.5 mph - N/A   Scattered Clouds
4:55 PM 86.4 °F 93.0 °F 72.3 °F 63% 29.96 in 10.0 mi ENE 3.5 mph - N/A   Scattered Clouds
5:15 PM 86.9 °F 94.5 °F 73.2 °F 64% 29.96 in 10.0 mi ESE 4.6 mph - N/A   Scattered Clouds
5:35 PM 87.4 °F 94.4 °F 72.5 °F 61% 29.96 in 10.0 mi SE 3.5 mph - N/A   Scattered Clouds
5:55 PM 87.4 °F 95.8 °F 73.8 °F 64% 29.96 in 10.0 mi East 4.6 mph - N/A   Clear
6:15 PM 85.8 °F 92.6 °F 73.0 °F 65% 29.95 in 10.0 mi East 3.5 mph - N/A   Clear
6:35 PM 85.1 °F 92.6 °F 73.8 °F 69% 29.95 in 10.0 mi ENE 4.6 mph - N/A   Clear
6:55 PM 83.5 °F 90.9 °F 74.7 °F 75% 29.94 in 10.0 mi East 3.5 mph - N/A   Clear
7:15 PM 82.0 °F 88.1 °F 74.3 °F 77% 29.94 in 10.0 mi SE 4.6 mph - N/A   Clear
7:35 PM 81.1 °F 86.4 °F 73.6 °F 78% 29.95 in 10.0 mi SSE 3.5 mph - N/A   Clear
7:55 PM 81.3 °F 86.5 °F 73.4 °F 77% 29.94 in 10.0 mi SSE 4.6 mph - N/A   Clear
8:15 PM 81.3 °F 86.3 °F 73.2 °F 76% 29.95 in 10.0 mi SSE 3.5 mph - N/A   Mostly Cloudy
8:35 PM 80.2 °F 84.7 °F 73.4 °F 80% 29.95 in 10.0 mi Calm Calm - N/A   Mostly Cloudy
8:55 PM 79.7 °F - 73.4 °F 81% 29.95 in 10.0 mi Calm Calm - N/A   Scattered Clouds
9:15 PM 80.1 °F 84.2 °F 73.0 °F 79% 29.95 in 10.0 mi Calm Calm - N/A   Overcast
9:35 PM 79.9 °F - 72.9 °F 79% 29.94 in 10.0 mi SSE 3.5 mph - N/A   Overcast
9:55 PM 79.7 °F - 72.7 °F 79% 29.94 in 10.0 mi Calm Calm - N/A   Mostly Cloudy
10:15 PM 79.0 °F - 72.5 °F 80% 29.94 in 10.0 mi South 4.6 mph - N/A   Mostly Cloudy
10:35 PM 79.0 °F - 72.0 °F 79% 29.94 in 10.0 mi Calm Calm - N/A   Overcast
10:55 PM 78.4 °F - 71.8 °F 80% 29.93 in 10.0 mi South 4.6 mph - N/A Rain Light Rain
11:15 PM 77.7 °F - 71.8 °F 82% 29.92 in 10.0 mi Calm Calm - N/A Rain Light Rain
11:35 PM 76.6 °F - 72.5 °F 87% 29.94 in 10.0 mi West 3.5 mph - 0.01 in Rain Light Rain
11:55 PM 76.3 °F - 72.7 °F 89% 29.96 in 7.0 mi West 3.5 mph - 0.04 in Rain , Thunderstorm Rain